Starlink 11295

operational
NORAD ID: 61536 Int'l Des: 2024-184 Owner: SPXS Country: US Constellation: starlink
LEOCIRCULAR

关于 Starlink 11295

正在加载描述...

实时位置

正在加载3D地球...

即将过境

高度历史

Altitude vs Time

uPlot chart will show altitude changes over time

两行轨道根数

1 61536U 24184E 25352.98996587 .00001228 00000-0 14995-4 0 9993
2 61536 53.1600 274.0003 0001175 88.5410 271.5742 15.69702831 67748
Epoch: Dec 18, 2025 • Age: 32 hours

当前状态

高度 377.4 km
速度 7.68 km/s
星下点 -49.19°S, 52.76°W
发射日期 Oct 15, 2024
运行时间 1.1 years
类型 internet

技术详情

分类 Payload
质量 960.00 kg
干质量 910.00 kg
总质量 960.00 kg
长度 0.30 m
直径 4.10 m
跨度 29.00 m
形状 Box + pan
制造商 SPXS
平台类型 Starlink V2MD
阶段状态 In Orbit
所有者/国家 SPXS/US

大型星座

Loading constellations...